Charlotte, NC

12:13 PM EST on December 04, 2016 (GMT -0500)
Charlotte-Douglas International

Weather History for KCLT - September, 2003

Change the Weather History Date:

Friday, September 26, 2003

  Actual Average Record
Temperature  
Mean Temperature 69 °F 67 °F  
Max Temperature 82 °F 78 °F 94 °F (1961)
Min Temperature 57 °F 57 °F 42 °F (1950)
Degree Days  
Heating Degree Days 0 2  
Month to date heating degree days 13  
Since 1 July heating degree days 13  
Cooling Degree Days 4 4  
Month to date cooling degree days 185  
Year to date cooling degree days 1462  
Growing Degree Days 19 (Base 50)    
Moisture  
Dew Point 62 °F    
Average Humidity 80    
Maximum Humidity 100    
Minimum Humidity 50    
Precipitation  
Precipitation 0.00 in 0.11 in 3.89 in (2016)
Month to date precipitation 2.78  
Year to date precipitation 31.38  
Snow  
Snow 0.00 in 0.00 in 0.00 in ()
Month to date snowfall 0.0  
Since 1 July snowfall 0.0  
Since 1 September snowfall 0.0  
Snow Depth -    
Sea Level Pressure  
Sea Level Pressure 29.98 in    
Wind  
Wind Speed 2 mph (South)    
Max Wind Speed 8 mph    
Max Gust Speed -    
Visibility 8 miles    
Events      
T = Trace of Precipitation, MM = Missing Value Source: NWS Daily Summary

Daily Weather History Graph

Daily Weather History Graph

Search for Another Location

Airport or City:

Trip Planner

Search our weather history database for the weather conditions in past years. The results will help you decide how hot, cold, wet, or windy it might be!

Date:

Astronomy

Sep. 26, 2003 Rise Set
Actual Time 7:14 AM EDT 7:15 PM EDT
Civil Twilight 6:49 AM EDT 7:40 PM EDT
Nautical Twilight 6:19 AM EDT 8:10 PM EDT
Astronomical Twilight 5:49 AM EDT 8:39 PM EDT
Moon 7:38 AM EDT (9/26) 7:54 PM EDT (9/26)
Length of Visible Light 12h 51m
Length of Day
12h 00m
New Moon, 0% of the Moon is Illuminated
Sep 26
New Moon
Oct 2
First Quarter
Oct 10
Full
Oct 18
Last Quarter
Oct 25
New

Hourly Weather History & Observations

Time (EDT) Temp. Heat Index Dew Point Humidity Pressure Visibility Wind Dir Wind Speed Gust Speed Precip Events Conditions
12:51 AM 64.0 °F - 62.1 °F 93% 30.01 in 8.0 mi Calm Calm - N/A   Clear
1:51 AM 63.0 °F - 62.1 °F 97% 30.00 in 8.0 mi Calm Calm - N/A   Clear
2:51 AM 62.1 °F - 62.1 °F 100% 29.99 in 7.0 mi Calm Calm - N/A   Clear
3:51 AM 61.0 °F - 61.0 °F 100% 29.98 in 7.0 mi Calm Calm - N/A   Clear
4:51 AM 60.1 °F - 60.1 °F 100% 29.98 in 7.0 mi Calm Calm - N/A   Clear
5:51 AM 59.0 °F - 59.0 °F 100% 29.99 in 6.0 mi Calm Calm - N/A   Clear
6:51 AM 60.1 °F - 60.1 °F 100% 30.00 in 6.0 mi Calm Calm - N/A   Partly Cloudy
7:19 AM 57.2 °F - 57.2 °F 100% 30.02 in 6.0 mi Calm Calm - N/A   Partly Cloudy
7:51 AM 59.0 °F - 59.0 °F 100% 30.00 in 6.0 mi Calm Calm - N/A   Partly Cloudy
8:51 AM 66.0 °F - 64.0 °F 93% 30.01 in 6.0 mi South 3.5 mph - N/A   Partly Cloudy
9:51 AM 71.1 °F - 63.0 °F 75% 30.01 in 6.0 mi Calm Calm - N/A   Haze
10:51 AM 75.9 °F - 64.0 °F 67% 30.01 in 9.0 mi Variable 4.6 mph - N/A   Clear
11:51 AM 78.1 °F - 64.0 °F 62% 30.01 in 10.0 mi Variable 3.5 mph - N/A   Partly Cloudy
12:51 PM 80.1 °F 81.5 °F 63.0 °F 56% 30.00 in 10.0 mi South 8.1 mph - N/A   Mostly Cloudy
1:51 PM 80.1 °F 81.2 °F 62.1 °F 54% 29.99 in 10.0 mi South 5.8 mph - N/A   Mostly Cloudy
2:51 PM 81.0 °F 82.2 °F 63.0 °F 54% 29.96 in 10.0 mi Variable 5.8 mph - N/A   Scattered Clouds
3:51 PM 79.0 °F - 61.0 °F 54% 29.95 in 10.0 mi Calm Calm - N/A   Scattered Clouds
4:51 PM 81.0 °F 81.7 °F 61.0 °F 50% 29.94 in 10.0 mi South 8.1 mph - N/A   Scattered Clouds
5:51 PM 79.0 °F - 63.0 °F 58% 29.94 in 10.0 mi South 3.5 mph - N/A   Scattered Clouds
6:51 PM 73.0 °F - 64.0 °F 73% 29.93 in 9.0 mi South 4.6 mph - N/A   Partly Cloudy
7:51 PM 69.1 °F - 63.0 °F 81% 29.93 in 9.0 mi South 3.5 mph - N/A   Partly Cloudy
8:51 PM 66.9 °F - 62.1 °F 84% 29.94 in 9.0 mi South 3.5 mph - N/A   Clear
9:51 PM 69.1 °F - 63.0 °F 81% 29.94 in 8.0 mi SSE 3.5 mph - N/A   Clear
10:51 PM 68.0 °F - 63.0 °F 84% 29.94 in 9.0 mi SSE 8.1 mph - N/A   Clear
11:51 PM 66.0 °F - 62.1 °F 87% 29.94 in 8.0 mi SSE 5.8 mph - N/A   Clear